Regional Weather Roundup
Issued by NWS

Home | Current Version | Previous Version | Graphics & Text | Print | Product List | Glossary On
Versions: 1 2 3 4 5 6 7 8 9 10 11 12 13 14 15 16 17 18 19 20 21 22 23 24 25 26 27
000
ASUS45 KCYS 280410
RWRWY

WYOMING REGIONAL WEATHER ROUNDUP
NATIONAL WEATHER SERVICE CHEYENNE WY
1000 PM MDT SAT MAY 27 2017

NOTE:  "FAIR" INDICATES FEW OR NO CLOUDS BELOW 12,000 FEET
WITH NO SIGNIFICANT WEATHER AND/OR OBSTRUCTIONS TO VISIBILITY.

WYZ001-280500-
YELLOWSTONE NATIONAL PARK

CITY           SKY/WX    TMP DP  RH WIND       PRES   REMARKS
LK YELLOWSTONE   N/A     35  33  92 CALM      30.38R
W YELLOWSTONE  NOT AVBL

$$
WYZ002>013-054>058-071-098>099-280500-
NORTHERN WYOMING

CITY           SKY/WX    TMP DP  RH WIND       PRES   REMARKS
JACKSON        FAIR      41  34  75 CALM      30.32R
CODY           FAIR      55  36  48 W3        30.23R
GREYBULL       FAIR      62  32  32 W3        30.14R
WORLAND          N/A     48  38  68 SW3       30.16R
SHERIDAN       CLOUDY    57  42  57 W15       30.14S
BUFFALO        CLOUDY    56  36  47 N10       30.19R
GILLETTE       FAIR      45  41  86 W9        30.13R
HULETT         FAIR      50  41  71 S7        30.12S
NEWCASTLE      FAIR      55  36  47 N13       30.13R

$$
WYZ014>020-022>026-101>103-280500-
CENTRAL WYOMING

CITY           SKY/WX    TMP DP  RH WIND       PRES   REMARKS
BIG PINEY      FAIR      40  30  67 N9        30.33R WCI  34
PINEDALE       FAIR      43  30  61 NW7       30.33R
DUBOIS         FAIR      45  28  53 NW10      30.31R
LANDER         FAIR      48  34  58 SW6       30.23R
RIVERTON       FAIR      54  29  38 CALM      30.24R
CASPER         FAIR      45  39  79 SW7       30.22R
DOUGLAS        FAIR      45  38  76 NW3       30.20R

$$
WYZ021-027>030-104>119-280500-
SOUTHERN WYOMING

CITY           SKY/WX    TMP DP  RH WIND       PRES   REMARKS
EVANSTON       FAIR      48  32  53 N7        30.33R
KEMMERER         N/A     45  32  61 N6        30.34R
FORT BRIDGER   FAIR      49  31  49 W3        30.34R
ROCK SPRINGS   MOCLDY    50  26  39 E5        30.29R
DIXON            N/A     44  30  59 NE6       30.32R
RAWLINS        FAIR      41  31  67 NW9       30.30R
SARATOGA       FAIR      45  32  61 CALM      30.32R
LARAMIE        FAIR      37  30  75 NW8       30.29R WCI  31
CHEYENNE       FAIR      43  36  76 W10       30.25R
TORRINGTON     FAIR      53  38  56 NW8       30.14R
PINE BLUFFS    FAIR      41  36  81 MISG      30.21R

$$




USA.gov is the U.S. government's official web portal to all federal, state and local government web resources and services.